STARLINK-35397, 65825

Orbit data source: Space-Track

STARLINK-35397, 65825 is a payload satellite owned by SpaceX/Seattle (US) in LEO that was launched on Mon, 29 Sep 2025 UTC via an FALCON 9 launch vehicle from the Air Force Western Test Range (AFWTR). Payload-class satellites include a variety of spacecraft equipped with specific instruments for various scientific and technological missions. These include communications satellites like Starlink; space stations such as the ISS; scientific satellites like the Hubble; Earth observation satellites from companies like Planet Labs, Umbra, and HawkEye 360; GPS; miniature CubeSats for education and research; and military/defense satellites.

Loading next visibility...
Identifier
65825, 2025-221C
Orbit
LEO
Country
Flag of USUS
Related business
Manufacturer
SpaceX/Seattle
Mission
Operational Commercial Communications
Bus & Motor
STARLINK V2MO, Unknown motor
Mass
575 kg wet, ~530 kg dry
Launch date (UTC)
2025-09-29 (9 months ago)
Launch vehicle
FALCON 9
Launch site
Air Force Western Test Range (AFWTR)
Object type
Payload
Rocket body
Debris
Shape & HBR
Box + 2 Pan, 17.7 m
Radar Cross Section
36.964 m², Large (>1 m²)

Expand to show TLE details & history
Last TLE update: 1 day ago

TLE from 1 day ago
0 STARLINK-35397
1 65825U 25221C   26170.86411400  .00027389  00000-0  81837-3 0  9997
2 65825  53.1594 332.5632 0000842  82.9768 277.1330 15.34416000 41746
Epoch: 2026-06-19T20:44Z
TLE epoch observation values (Epoch: 2026-06-19T20:44:19.449Z)
Latitude
-0.00005°
Longitude
113.39515°
Altitude
463.486 km
Speed
7.636 km/s
True Right ascension
22h 10m 15s
True Declination
0° 00' 00"
Sunlit
Object was in full shadow at epoch
Visualization orbit readout
Latitude
Unknown
Longitude
Unknown
Altitude
Unknown
Speed
Unknown
Apparent Right ascension
Unknown
Apparent Declination
Unknown
Sunlit
N/A
Visualization observer readout
Local Sidereal Time
07:20:09
Azimuth
Unknown
Elevation
Unknown
Doppler factor
Unknown
Orbital elements
Apogee altitude
463.489 km
Perigee altitude
462.337 km
Semi-major axis
6,841.05 km
Eccentricity
0.00008
Inclination
53.1594°
RAAN
332.5632°
Arg. of periapsis
82.9768°
True anomaly
277.12343°
Mean anomaly
277.133°
Eccentric anomaly
277.12821°
Mean motion
3.83583 °/min
Orbital period
93.85 mins
BSTAR
0.00081837
Loading maneuver chart data...
Computing Atmospheric mass density...
Loading historical data...
Loading historical data...
Loading historical data...
Loading historical data...
Loading historical data...
Loading historical data...
Loading historical data...

Documentation

Showing up to 5 results
|